Torna al catalogo

FENGYUN 1C DEB

AttivoSSO
NORAD 29818·DEBRIS·🇨🇳 China

Lanciato May 10, 1999 da Taiyuan Satellite Launch Center

Loading…

Prossimi Passaggi (prossime 24 ore)

TLE

AggiornatoSource: Space-Track

Epoca: Sep 14, 2026, 11:13 UTC

1 29818U 99025DL  26257.46753767  .00000191  00000-0  13771-3 0  9993
2 29818  98.6823 128.5355 0114146 331.3761 149.6752 14.04670914  6754

Traccia FENGYUN 1C DEB in tempo reale con AllMySat

Download on the App Store